RS-38
1 35869U 09049E 11314.71602121 .00000087 00000-0 59266-4 0 8685
2 35869 098.6849 007.8290 0004520 337.9101 022.1878 14.22032134111427
ARISSAT1
1 37772U 98067CK 11314.89899601 .00180624 00000-0 11624-2 0 3032
2 37772 051.6326 138.6818 0003114 085.0349 065.2295 15.75099869 15446
SRMSAT
1 37839U 11058B 11314.89054292 .00000619 00000-0 19019-3 0 264
2 37839 019.9635 246.7055 0018985 328.1249 031.8008 14.11985316 4210
JUGNU
1 37841U 11058D 11314.85979429 .00000264 00000-0 00000 0 0 241
2 37841 019.9719 247.4841 0012391 298.8583 061.0597 14.10082857 4198
